COSMOS 1349

Satellite information

Favourite Embed

Satellite Type and Status

PAYLOADIN ORBIT

Key statistics

Satellite COSMOS 1349 at a glance.

Uptime

15910

Days in orbit

Revolutions

≈ 13.7

Per day

Orbit

LEO

Low Earth Orbit

Inclination

82.9

Latest

Satellite identification and parameters

Extended collection of information and parameters for COSMOS 1349.

Object identification

Identified? True

Debris? False

Object name: COSMOS 1349

International designator: 1982-030A

Object number (NORAD): 13127

Object ID (CCSDS): 13127

Country: COMMONWEALTH OF INDEPENDENT STATES (CIS)

Current information (Y/N): Y

RCS size: LARGE

Orbital parameters

Period: 104.803 minutes

Inclination: 82.9299 deg

SMA: 7363.362 km

Apoapsis: 1007.189 km

Periapsis: 963.265 km

RAAN: 333.9195 deg

Eccentricy: 0.00298258

Argument of periapsis: 324.1751 deg

Mean anomaly: 147.209 deg

Mean motion: 13.74005759 rev/day

Mean motion (dot): 0.00000053 rev/day2

B* drag term: 0.00004030271 1/REarth

Two-line elements (TLE)

Creation date: Oct. 28, 2025, 7:11 p.m.

Reference frame: TEME

Reference center: EARTH

Epoch: Oct. 28, 2025, 11:45 a.m. UTC

TLE line 0: 0 COSMOS 1349

TLE line 1: 1 13127U 82030A 25301.48988045 .00000053 00000-0 40303-4 0 9996

TLE line 2: 2 13127 82.9299 333.9195 0029826 324.1751 147.2090 13.74005759183497

Live tracking on map

Real-time ground track for satellite COSMOS 1349.

In-orbit conjunctions

A list of the most updated potential collisions computed for object COSMOS 1349.

Target Orbit TCA Probability of collision Miss distance Type
NIMBUS 2 DEB SSO 2025-06-19 07:56:44 0.004242061 55.0 (m) DEBRIS
FENGYUN 1C DEB SSO 2025-03-15 12:47:02 0.0001379428 204.0 (m) DEBRIS
THORAD AGENA D DEB SSO 2025-01-10 20:41:00 0.002809732 61.0 (m) DEBRIS
DELTA 1 DEB SSO 2024-06-11 00:07:13 0.002315462 216.0 (m) DEBRIS

Associated space launch

Navigation satellite providing location information for the Tsiklon-B navigation system

COSMOS 1349 was lifted into orbit during the mission ‘Kosmos-3M | Parus 32’, on board a Kosmos-3M space rocket.

The launch took place on April 8, 1982, 12:15 a.m. from 132/2.

For more information about the launch, click the button.

Launch to space Kosmos-3M | Parus 32
Kosmos-3M | Parus 32

Agency: N/A

Status: Launch Successful

Launch date: April 8, 1982, 12:15 a.m. UTC

Rocket: Kosmos-3M

Launch pad: 132/2

Location: Plesetsk Cosmodrome, Russian Federation

...

Latest news about this satellite

There are no fresh news available about this satellite. Check back as we update our databases every day.


Newsletter sign-up

Weekly statistics, charts and insights to help you stay on top of the space industry.